Theta_e
319 314 311 314 316 316 314 311 310 314 317 315 314 314 317 320 321 325 327 328 334 336 342 343 344 345 345 347 349 356 351 355 355 355 355 354 346 352 356 358 361 353 360 359
314 311 316 316 316 314 312 310 310 314 317 315 314 314 318 320 321 322 325 327 329 337 337 344 345 345 345 349 354 356 360 357 358 358 356 358 354 352 351 357 350 351 355 358
311 313 317 314 313 311 311 309 309 311 315 315 314 312 316 319 323 323 324 326 329 333 338 340 344 345 345 349 351 356 361 362 362 365 357 361 359 358 351 352 346 347 352 357
313 316 313 312 310 311 306 313 313 312 310 305 313 303 315 319 318 322 323 326 327 331 336 340 342 343 345 344 353 358 360 364 363 366 349 354 351 346 349 350 348 348 351 356
309 312 311 309 310 313 309 314 313 313 309 309 310 306 311 318 316 318 323 326 327 330 334 339 341 345 346 349 350 357 361 365 365 367 363 359 355 352 354 356 347 347 352 357
313 317 315 313 315 315 315 312 312 312 310 303 309 309 308 312 316 317 325 327 328 330 335 338 344 348 347 349 348 355 360 361 363 362 361 361 355 351 348 352 347 348 351 356
313 313 316 316 312 315 313 309 302 302 302 301 309 308 310 315 317 319 321 328 330 332 334 337 341 345 348 348 347 355 358 360 363 361 361 361 360 353 347 348 346 347 349 353
307 305 314 317 314 311 312 311 304 299 299 302 311 305 310 317 319 322 324 329 331 332 335 337 342 345 347 348 351 354 358 360 362 361 359 362 362 353 347 349 348 349 351 353
308 308 317 316 317 315 311 308 314 307 307 303 306 311 316 318 318 319 323 326 330 332 335 337 340 342 347 348 353 354 359 361 361 360 361 360 361 355 348 347 349 352 353 356
313 306 314 316 317 316 313 315 306 307 301 299 304 307 306 314 316 320 322 324 330 333 335 337 340 344 345 347 353 355 361 361 361 360 359 357 358 358 353 348 347 351 361 358
316 311 310 315 312 312 312 310 311 311 307 301 299 304 316 318 318 319 325 329 330 332 335 338 340 346 350 350 352 352 357 360 360 358 359 358 356 357 357 354 352 359 357 353
316 312 308 310 316 316 314 312 312 307 306 307 306 306 317 320 319 326 328 330 332 334 337 338 341 344 347 352 352 352 354 358 358 358 361 357 358 356 354 354 351 359 358 351
316 311 304 305 310 314 311 313 313 312 310 307 303 304 321 320 322 325 324 329 333 336 336 340 341 345 347 349 355 353 355 357 356 358 358 356 355 355 354 355 357 358 363 355
319 310 306 301 305 309 307 309 312 311 306 306 307 309 314 317 319 320 323 331 331 335 338 339 339 344 355 354 354 360 356 356 356 357 356 356 355 355 355 356 356 355 360 359
312 305 307 308 309 308 307 307 308 306 307 303 306 307 311 315 319 320 324 330 331 333 334 338 339 344 347 359 359 357 358 357 356 358 357 357 356 358 359 360 359 359 360 358
314 306 308 306 309 309 306 308 308 308 308 307 307 307 315 317 322 318 323 329 329 330 332 335 341 344 347 350 356 359 358 362 360 359 359 360 353 359 356 360 358 360 359 360
310 308 306 302 307 307 302 307 308 308 310 309 304 309 320 320 321 323 325 329 328 329 330 333 335 340 346 346 356 355 360 359 359 358 359 357 358 357 356 358 358 357 358 358
309 308 307 301 305 296 307 313 311 308 309 310 312 317 319 320 322 322 327 328 328 328 329 333 333 337 339 344 347 356 357 360 363 359 358 358 358 356 358 355 357 357 358 358
312 309 303 300 299 304 306 309 310 308 307 315 315 317 318 319 319 323 327 327 328 330 330 330 333 336 343 347 354 359 358 359 358 359 357 358 359 357 357 355 357 357 358 358
312 312 305 303 298 295 306 312 315 314 303 316 316 315 315 317 310 317 322 323 325 328 330 330 331 333 340 349 351 358 359 360 357 360 360 362 361 359 356 355 353 358 360 356
306 307 304 302 300 303 311 314 315 301 304 314 315 315 314 312 315 320 321 321 323 326 328 332 333 332 339 347 351 353 358 357 362 362 363 363 363 360 361 361 359 359 358 357
304 302 302 303 300 297 314 311 306 312 315 315 315 315 314 315 317 318 319 322 322 324 326 328 332 332 336 343 348 353 355 362 364 362 363 362 363 361 361 361 361 360 357 357
302 306 304 305 304 314 314 313 315 315 314 315 315 316 316 315 315 316 318 320 321 323 325 329 331 333 336 342 349 347 355 355 359 359 357 360 361 361 361 360 359 355 355 350
310 312 306 308 311 311 313 315 316 316 315 316 316 316 316 314 316 317 320 320 321 322 324 328 331 332 334 342 347 350 354 355 353 354 354 356 357 357 359 359 359 353 350 349
308 310 308 307 311 312 313 315 315 315 316 316 315 316 315 315 315 316 320 321 323 323 324 327 331 334 335 340 345 349 350 347 350 353 351 354 358 356 357 357 352 350 347 342
311 308 305 303 311 310 312 316 317 316 314 316 315 315 317 316 317 318 318 321 322 324 325 328 333 335 335 338 345 344 342 345 346 348 351 353 354 357 355 352 339 309 310 307
Wind_Speed
14 13 12 14 12 10 10 11 11 10 6 5 12 14 14 8 10 13 10 9 15 16 19 19 15 13 11 12 17 15 11 8 9 8 7 7 7 3 3 1 4 6 5 7
13 15 13 10 16 8 11 12 13 12 5 9 16 18 14 12 5 6 12 13 10 19 16 18 16 17 11 13 14 12 12 16 11 8 8 6 7 4 5 3 3 6 8 8
15 14 5 7 12 14 10 13 12 14 10 14 19 13 11 6 9 5 7 9 12 13 19 18 19 17 15 13 11 13 10 11 8 6 6 5 5 3 2 2 3 4 10 8
12 12 12 12 11 10 14 13 11 11 12 12 14 13 15 14 4 12 11 3 12 12 15 19 22 18 17 14 15 16 13 11 9 7 7 9 7 5 5 6 5 6 15 10
14 9 9 11 13 11 13 12 11 9 13 17 19 11 13 12 9 6 5 7 5 8 15 20 19 20 18 16 16 16 15 12 8 8 6 4 4 5 6 6 11 11 12 10
12 14 7 9 12 8 6 12 13 15 15 14 11 12 1 7 5 5 3 10 2 3 12 12 21 19 18 15 15 16 15 12 11 9 8 7 9 7 6 7 8 8 8 8
18 20 17 12 11 13 10 12 10 12 9 8 3 12 6 8 10 2 2 9 8 3 10 11 15 20 17 17 16 16 16 14 12 11 9 8 7 8 7 5 6 10 9 8
11 10 17 15 9 12 11 14 10 14 14 8 14 8 5 3 8 3 3 9 8 4 10 11 11 11 14 18 16 17 16 15 13 11 10 7 7 6 7 7 5 10 9 9
10 9 10 5 8 5 12 14 12 13 15 13 10 14 18 20 8 4 12 12 8 4 9 10 12 13 15 12 15 14 16 14 12 11 9 7 8 9 8 8 9 10 7 7
11 14 12 15 11 9 14 14 13 9 10 13 10 10 9 8 4 7 14 9 11 1 1 11 12 11 12 13 13 13 16 14 13 12 10 9 9 10 10 13 13 15 7 7
12 13 16 16 14 10 12 14 15 11 11 10 12 4 9 15 5 6 15 12 13 12 10 4 8 11 10 12 12 13 15 14 12 12 11 10 10 11 10 9 10 7 7 7
12 14 12 17 22 21 18 19 12 12 13 11 9 10 11 10 20 16 17 14 13 14 17 11 7 12 13 11 12 13 12 14 11 10 9 10 11 11 11 9 10 7 8 10
11 8 9 12 14 18 17 11 14 14 15 15 16 12 12 4 15 16 17 11 11 11 12 14 14 6 11 13 10 12 13 14 14 13 13 11 11 12 12 11 9 7 6 11
4 12 15 14 18 22 17 18 13 14 15 8 16 16 10 14 13 15 13 9 8 9 11 11 13 13 5 8 11 8 14 14 14 14 13 11 11 10 11 13 11 9 9 8
5 13 16 17 19 20 21 19 18 18 19 19 20 24 18 3 17 11 7 10 6 9 10 11 11 11 11 4 8 9 8 15 15 12 11 11 10 9 8 8 8 9 9 9
9 12 14 17 18 18 20 21 21 21 21 22 21 21 19 16 13 7 9 6 5 8 9 11 11 9 9 8 8 8 8 6 11 12 11 10 10 11 11 8 9 7 8 9
13 12 13 17 18 20 17 18 17 20 14 14 16 10 13 13 14 12 9 9 5 6 7 9 11 12 8 12 6 10 10 10 10 12 12 10 10 11 11 10 10 10 9 8
14 13 11 14 15 20 16 16 15 8 10 14 12 15 14 14 14 14 11 8 5 6 9 9 9 10 14 14 14 8 12 12 9 12 13 14 14 13 11 11 11 10 9 10
12 10 11 12 14 19 21 16 12 12 4 13 10 12 12 13 13 9 13 12 11 8 8 9 11 11 10 13 14 5 10 14 13 12 14 15 14 14 14 13 12 11 10 9
5 8 10 12 16 19 19 10 4 9 8 10 9 9 11 13 8 6 12 14 12 12 10 10 13 14 11 10 11 9 5 9 13 13 13 14 15 15 16 16 16 13 10 11
8 7 11 11 14 14 17 16 8 8 6 7 7 8 9 10 10 16 17 14 13 14 14 11 10 13 10 9 10 12 5 11 10 12 13 14 15 17 15 13 12 13 12 10
13 11 12 12 14 11 8 15 13 11 13 15 12 11 12 13 15 15 16 15 14 14 15 15 10 10 14 9 8 10 12 7 10 12 13 15 15 14 13 15 13 13 12 10
7 8 7 8 10 13 13 10 16 17 13 14 17 17 17 16 16 18 15 16 14 13 14 15 10 10 12 10 8 10 10 12 11 12 14 13 16 15 14 15 14 11 11 10
8 4 6 12 13 15 17 15 16 18 17 14 14 16 19 20 18 19 17 14 13 13 13 13 11 10 11 10 7 11 7 8 12 12 14 14 14 16 14 11 10 9 9 9
7 11 12 13 12 18 13 15 16 19 20 18 17 19 17 20 19 19 17 17 16 12 15 13 13 7 10 11 10 9 10 10 10 9 10 12 12 14 13 12 8 10 10 10
8 7 6 8 14 15 19 20 25 23 20 21 17 16 16 15 16 15 16 18 17 16 15 12 13 7 10 12 5 5 8 8 9 10 10 10 11 11 11 11 7 13 11 4
Wind_Direction
232 242 244 264 282 358 344 305 295 303 322 304 309 285 281 276 262 196 198 240 193 195 188 168 178 168 176 147 165 158 164 166 149 157 178 192 202 215 225 149 61 56 214 174
244 249 251 266 293 316 301 295 286 281 288 328 293 286 270 263 197 269 195 199 233 189 163 165 175 163 172 162 153 149 143 163 163 165 193 185 193 203 220 163 110 137 230 202
261 264 306 297 297 300 271 256 281 285 335 284 281 304 294 243 139 215 250 225 213 205 175 169 171 173 170 149 156 156 167 159 171 204 165 165 136 98 130 218 122 242 268 209
259 273 268 287 262 267 281 289 322 328 300 297 311 286 277 129 216 196 236 208 205 188 175 171 172 173 178 160 163 160 164 161 177 198 158 177 177 175 184 189 149 195 253 216
275 234 242 252 262 286 276 296 287 277 282 283 278 266 146 156 154 25 25 90 301 176 175 173 169 176 182 170 167 158 164 165 185 189 174 179 189 208 182 170 165 206 240 207
259 284 244 273 309 284 308 298 289 272 261 267 287 275 40 121 145 78 136 86 351 91 157 174 168 166 175 181 166 158 161 164 178 187 189 187 194 186 200 174 172 207 214 200
239 231 230 224 252 250 236 251 268 268 205 269 272 300 26 86 95 84 53 139 131 148 150 163 166 170 176 163 176 152 160 162 184 178 192 206 181 199 161 169 178 205 203 194
286 309 196 188 210 284 292 273 259 295 306 320 179 229 172 83 86 106 94 91 101 157 138 165 175 167 161 170 171 155 162 165 177 183 182 203 164 137 167 169 217 224 187 195
321 341 138 157 251 257 287 277 280 279 279 276 282 52 13 8 131 67 73 35 124 160 150 166 170 175 163 176 158 157 160 163 171 197 175 179 166 154 154 192 228 244 208 168
303 300 308 304 173 222 257 286 304 298 286 284 296 306 142 228 56 46 76 36 10 38 234 159 171 169 172 167 158 164 156 164 177 195 174 179 177 167 172 174 216 239 144 149
306 299 294 296 282 249 270 219 249 279 289 289 292 63 205 194 226 136 85 52 24 7 347 172 171 149 152 159 171 174 161 167 185 197 177 178 174 175 176 190 217 233 160 100
308 318 297 301 311 307 301 294 254 240 251 268 296 296 105 104 15 62 76 48 33 2 1 333 169 159 155 163 178 179 171 167 179 195 174 183 176 176 180 188 208 222 149 121
357 291 303 301 295 252 337 265 292 287 271 263 280 281 88 78 75 41 12 43 20 5 13 1 347 165 160 165 176 181 174 166 177 187 181 188 189 183 184 189 202 204 167 164
312 282 281 281 296 311 305 305 284 284 292 276 280 297 28 94 51 26 351 337 14 20 9 12 347 357 151 165 169 180 170 173 180 188 182 186 186 195 200 183 196 195 175 169
239 265 273 282 294 296 298 297 297 291 288 286 297 300 308 92 139 179 187 281 26 27 9 8 359 346 341 155 161 177 189 179 181 181 185 183 176 186 208 187 194 184 169 170
243 265 274 275 275 275 278 277 275 273 271 273 276 279 293 303 142 113 209 85 28 31 6 355 350 340 331 316 175 176 193 217 173 173 183 170 175 181 193 197 187 195 180 182
284 285 296 289 304 302 286 280 271 277 296 310 281 309 23 13 32 30 31 85 41 25 2 352 340 332 345 312 264 188 187 203 178 177 179 176 182 187 187 196 188 196 187 190
272 270 274 277 282 271 278 290 283 294 309 311 331 18 25 12 8 5 24 70 20 12 355 342 335 337 324 325 309 307 190 183 198 177 183 190 185 190 190 199 196 190 198 190
242 263 272 277 272 281 279 280 11 1 322 35 11 2 356 360 352 53 29 6 350 349 340 333 324 330 314 299 305 275 226 180 189 190 189 195 182 187 190 191 201 201 197 195
248 279 269 273 285 285 302 63 334 330 264 38 20 9 360 352 309 90 352 341 334 328 331 328 326 309 317 335 324 302 207 193 192 192 194 191 186 188 196 198 188 195 200 193
274 251 255 260 266 262 23 6 340 247 18 0 346 344 328 311 309 314 316 311 319 316 318 319 306 311 314 333 320 320 260 209 198 199 190 193 192 193 195 197 195 193 199 196
285 278 286 298 295 288 30 350 335 351 339 334 324 308 304 299 297 296 301 304 304 306 304 302 300 309 306 319 308 316 319 232 206 196 197 196 196 193 192 198 196 193 192 194
269 280 315 306 305 326 336 348 337 330 331 336 325 312 302 297 291 287 288 288 286 283 287 288 286 299 301 303 327 311 316 340 229 209 209 206 201 194 195 194 195 191 190 182
312 66 276 307 296 318 321 332 327 338 320 314 299 298 306 304 310 310 307 297 290 294 288 289 285 288 296 307 318 300 305 314 320 233 224 219 206 205 203 195 189 178 183 181
354 329 348 297 297 338 309 323 321 318 313 310 294 295 291 294 291 293 296 302 300 284 283 272 277 278 287 293 292 353 340 319 277 243 223 215 206 201 199 194 190 193 188 192
1 10 327 314 323 305 298 306 302 299 291 285 285 295 301 284 301 282 283 282 287 280 272 271 274 274 282 278 295 342 330 328 324 241 225 214 209 198 193 190 144 48 41 42